Terug naar catalogus

CZ-6A DEB

ActiefPO
NORAD 60984·DEBRIS·🇨🇳 China

Gelanceerd Aug 6, 2024 vanaf Taiyuan Satellite Launch Center

Loading…

Volgende Passages (komende 24 uur)

TLE

VersSource: Space-Track

Epoch: Sep 13, 2026, 17:17 UTC

1 60984U 24140MK  26256.72028317  .00000403  00000-0  11447-3 0  9996
2 60984  88.9287 255.1056 0061645 322.9357  36.7595 14.42541103108445

Volg CZ-6A DEB in realtime met AllMySat

Download on the App Store